Pagina principale
METAR-TAF:

METAR-TAF

Aeroporti :

Berlin, New Hampshire, Stati Uniti

latitudine: 44-34-34N, longitudine: 071-10-43W, altezza: 353 m

Osservazione

Il bollettino è stato emesso 1 ora e 1 minuti fa, alle 05:52 UTC
Vento calmo
Temperature 19°C
Umidità 100%
Pressione 1016 hPa
Visibilità: 16.1 km
Nuvoloso ad un'altezza di 2400 ft

METAR: KBML 140552Z AUTO 00000KT 10SM BKN024 19/19 A3000 RMK AO2 RAB0459E13 SLP155 P0000 60000 T01940189 10222 20194 58008

Ora: 02:53 (06:53 UTC)


TAF: mancante

Osservazioni e previsioni meteorologiche di più di 4000 aeroporti (messaggi METAR e TAF).

Le stazioni disponibili sono rappresentate dai dischi gialli e rossi sulla carta.

Puntare il mouse per vedere il nome della stazione.

Clicca sopra per visualizzare le osservazioni e previsioni meteorologiche.

Per cambiare la mappa : fare clic sui pulsanti verdi con una croce nera per ingrandire, il pulsante verde con un trattino per diminuire, o sulla freccia verde per le mappe adiacenti.


METAR-TAF: